User: anonymous   Login
Location: Arbon
(43.0005°N, 0.7472°E)
Time: 11:12:26
(UTC+00:00)
Language:

Cosmos 1655 Rocket - Orbit

View from above orbital plane
View from above orbital plane
View from above satellite
View from above satellite

Ground track
Ground track

The orbit data is extracted from the following two-line orbital elements,

1 15752U 85041B   20299.94733995 -.00000081 +00000-0 -10313-3 0  9991
2 15752 082.9459 121.6348 0023422 320.9245 039.0218 13.73115458773965
Epoch (UTC): 25 October 2020 22:44:10
Eccentricity: 0.0023422
inclination: 82.9459°
perigee height: 971 km
apogee height: 1005 km
right ascension of ascending node: 121.6348°
argument of perigee: 320.9245°
revolutions per day: 13.73115458
mean anomaly at epoch: 39.0218°
orbit number at epoch: 77396

The dashed part of the orbit path shows where the satellite is in the earth's shadow,  

DLR